User: anonymous   Login
Location: Caltech
(34.1382°N, 118.1253°W)
Time: 00:13:52
(UTC-08:00)
Language:

SEDSat Delta rocket - Orbit

View from above orbital plane
View from above orbital plane
View from above satellite
View from above satellite

Ground track
Ground track

The orbit data is extracted from the following two-line orbital elements,

1 25510U 98061C   18018.22409319  .00000127  00000-0  95491-5 0  9998
2 25510  31.4363 346.8491 0328004 188.1600 296.3933 14.37291291  8272
Epoch (UTC): 18 January 2018 05:22:41
Eccentricity: 0.0328004
inclination: 31.4363°
perigee height: 533 km
apogee height: 1002 km
right ascension of ascending node: 346.8491°
argument of perigee: 188.1600°
revolutions per day: 14.37291291
mean anomaly at epoch: 296.3933°
orbit number at epoch: 827

The dashed part of the orbit path shows where the satellite is in the earth's shadow,  

DLR